Content
SEND FEEDBACK

Daily
Averages
Monthly
Summary
United Kingdom

COUNTY OAK, ENGLAND


Home > Europe > United Kingdom > England
Elevation: 203 feet     Latitude: 51 01N     Longitude: 000 10W

WEATHER
 
SELECT A DAY
Number of Records: 294,488;   Date Range: 7/1/96 - 9/16/14
 
SHARE

PRINT THIS DATA

[ ← Previous Day ]
WEATHER ALMANAC - OCTOBER 15, 2013
[ Next Day → ]
[ °C ]   °F
Weather ElementAverageHighLow
Temperature48.8 °F53.6 °F (12:20 pm)42.8 °F (11:20 pm)
Dewpoint45.1 °F46.4 °F (12:50 am)41 °F (11:50 pm)
Humidity87.5 %100 % (1:50 am)77 % (12:20 pm)
Barometer29.84 in29.95 in (10:20 pm)29.77 in (12:50 am)
Wind Speed6.3 mph11.5 mph (3:20 pm)
Wind Gust19.6 mph (11:50 am)
Weather ElementAverage
Visibility5.5 mi
Wind DirectionWSW (233.8 °)

Weather ElementTotal
Precipitation---
Heating Degree Days16.8 (Base 65)
Averaged from 47 records on October 15, 2013
WEATHER CONDITIONS BREAKOUT
WIND DIRECTION BREAKOUT
WEATHER BY HOUR - OCTOBER 15, 2013
[ °C ]   °F
Local TimeTemperatureDewpointHumidityBarometerVisibilityWind DirectionWind SpeedGust SpeedPrecipitationEventsConditions
12:50 AM48.2 °F46.4 °F93 %29.77 in6.2 miWNW (300°)8.1 mphMostly Cloudy
1:20 AM46.4 °F44.6 °F93 %29.77 in4.3 miWest (270°)6.9 mphMostly Cloudy
1:50 AM46.4 °F46.4 °F100 %29.77 in5.0 miWest (270°)9.2 mphOvercast
2:20 AM48.2 °F46.4 °F93 %29.80 in6.2 miWest (270°)8.1 mphOvercast
2:50 AM48.2 °F44.6 °F87 %29.80 in6.2 miWest (270°)6.9 mphMostly Cloudy
3:20 AM46.4 °F44.6 °F93 %29.80 in6.2 miWest (260°)9.2 mphMostly Cloudy
3:50 AM46.4 °F44.6 °F93 %29.80 in6.2 miWest (260°)8.1 mphMostly Cloudy
4:20 AM46.4 °F44.6 °F93 %29.80 in6.2 miWSW (250°)6.9 mphMostly Cloudy
4:50 AM46.4 °F44.6 °F93 %29.80 in6.2 miSW (230°)5.8 mphMostly Cloudy
5:20 AM46.4 °F44.6 °F93 %29.80 in6.2 miWest (260°)6.9 mphMostly Cloudy
5:50 AM46.4 °F44.6 °F93 %29.80 in6.2 miWSW (240°)4.6 mphMostly Cloudy
6:20 AM46.4 °F44.6 °F93 %29.80 in4.3 miWest (260°)6.9 mphOvercast
6:50 AM46.4 °F44.6 °F93 %29.80 in4.3 miWest (270°)4.6 mphOvercast
7:20 AM48.2 °F44.6 °F87 %29.80 in4.3 miWest (270°)6.9 mphMostly Cloudy
7:50 AM48.2 °F44.6 °F87 %29.80 in6.2 miWest (280°)8.1 mphMostly Cloudy
8:20 AM48.2 °F44.6 °F87 %29.80 in6.2 miWNW (290°)5.8 mphMostly Cloudy
8:50 AM48.2 °F44.6 °F87 %29.83 in6.2 miWSW (250°)5.8 mphMostly Cloudy
9:20 AM48.2 °F44.6 °F87 %29.83 in6.2 miSW (220°)5.8 mphScattered Clouds
9:50 AM50.0 °F44.6 °F82 %29.83 in6.2 miWSW (250°)5.8 mphMostly Cloudy
10:20 AM51.8 °F46.4 °F82 %29.83 in6.2 miWNW (300°)6.9 mphScattered Clouds
10:50 AM51.8 °F46.4 °F82 %29.83 in6.2 miNW (320°)8.1 mphPartly Cloudy
11:20 AM51.8 °F46.4 °F82 %29.83 in6.2 miNW (310°)8.1 mphPartly Cloudy
11:50 AM51.8 °F46.4 °F82 %29.83 in6.2 miWNW (300°)8.1 mph19.6 mphPartly Cloudy
12:20 PM53.6 °F46.4 °F77 %29.86 in6.2 miNW (310°)8.1 mphPartly Cloudy
12:50 PM53.6 °F46.4 °F77 %29.86 in6.2 miNW (320°)8.1 mphPartly Cloudy
1:20 PM53.6 °F46.4 °F77 %29.83 in6.2 miWNW (300°)8.1 mphPartly Cloudy
1:50 PM53.6 °F46.4 °F77 %29.83 in6.2 miWNW (300°)9.2 mphPartly Cloudy
2:20 PM53.6 °F46.4 °F77 %29.83 in6.2 miWNW (290°)8.1 mphScattered Clouds
2:50 PM53.6 °F46.4 °F77 %29.83 in6.2 miNW (320°)9.2 mphScattered Clouds
3:20 PM53.6 °F46.4 °F77 %29.83 in6.2 miNNW (340°)11.5 mphMostly Cloudy
3:50 PM53.6 °F46.4 °F77 %29.86 in6.2 miNNW (330°)10.4 mphScattered Clouds
4:20 PM53.6 °F46.4 °F77 %29.86 in6.2 miNNW (330°)8.1 mphPartly Cloudy
4:50 PM51.8 °F46.4 °F82 %29.86 in6.2 miWNW (290°)8.1 mphPartly Cloudy
5:20 PM51.8 °F46.4 °F82 %29.86 in6.2 miWest (280°)6.9 mphPartly Cloudy
5:50 PM50.0 °F46.4 °F87 %29.86 inWest (280°)4.6 mphClear
6:20 PM48.2 °F44.6 °F87 %29.86 inWest (270°)4.6 mphClear
6:50 PM48.2 °F44.6 °F87 %29.89 in5.0 miSW (230°)2.3 mph
7:20 PM50.0 °F46.4 °F87 %29.89 in5.6 miNW (310°)5.8 mph
7:50 PM46.4 °F44.6 °F93 %29.89 in4.3 miVariable3.5 mph
8:20 PM44.6 °F44.6 °F100 %29.92 in3.7 miVariable2.3 mph
8:50 PM46.4 °F44.6 °F93 %29.92 in3.7 miVariable2.3 mph
9:20 PM46.4 °F44.6 °F93 %29.92 in5.0 miWNW (290°)4.6 mph
9:50 PM44.6 °F42.8 °F93 %29.92 in3.7 miVariable2.3 mph
10:20 PM44.6 °F42.8 °F93 %29.95 in3.7 miCalm
10:50 PM44.6 °F42.8 °F93 %29.95 in3.7 miVariable2.3 mph
11:20 PM42.8 °F42.8 °F100 %29.95 in3.7 miVariable2.3 mph
11:50 PM42.8 °F41.0 °F93 %29.95 in3.7 miVariable2.3 mphPartly Cloudy
Hourly data recorded from EGKK, located miles away from County Oak, England







STORIES FROM OUR PARTNERS